EW2835 Weather Reports


Display with metric or nautical units.
time (UTC)temp
F
wind
direction
speed
MPH
gust
MPH
rain 1hr
in
rain 24hr
in
rain mn
in
humidity
%
barometer
mb
20260901051514 59 212 0.0 3.0 0.00 0.19 0.03 97 1015.0
20260901050011 58 246 0.0 3.0 0.00 0.19 0.03 97 1014.8
20260901044507 58 192 0.0 4.0 0.01 0.19 0.03 97 1014.7
20260901043116 58 179 0.0 2.0 0.01 0.19 0.03 97 1014.5
20260901041645 58 177 0.0 3.0 0.01 0.19 0.03 97 1014.3
20260901040053 58 284 0.0 6.0 0.01 0.19 0.03 97 1014.2
20260901034558 58 194 1.0 3.0 0.00 0.18 0.02 97 1014.0
20260901033057 58 172 0.0 6.0 0.00 0.18 0.02 96 1013.8
20260901031540 58 215 0.0 7.0 0.01 0.18 0.02 96 1013.8
20260901030039 58 175 0.0 2.0 0.02 0.18 0.02 96 1013.7
20260901024546 58 225 0.0 3.0 0.02 0.18 0.02 96 1013.7
20260901023037 58 240 2.0 9.0 0.02 0.18 0.02 96 1013.6
20260901021534 57 188 0.0 5.0 0.00 0.17 0.01 96 1013.5
20260901020034 57 170 3.0 10.0 0.00 0.17 0.01 96 1013.5
20260901014533 57 200 1.0 4.0 0.01 0.17 0.01 96 1013.4
20260901013034 57 213 3.0 9.0 0.01 0.17 0.01 96 1013.3
20260901011536 57 183 2.0 8.0 0.01 0.17 0.01 96 1013.3
20260901010039 57 209 1.0 6.0 0.01 0.17 0.01 96 1013.3
20260901004530 57 157 0.0 8.0 0.00 0.16 0.00 96 1013.5
20260901003028 57 182 0.0 6.0 0.00 0.16 0.00 96 1013.5
20260901001531 57 150 1.0 7.0 0.00 0.16 0.00 96 1013.4
20260901000026 57 204 0.0 9.0 0.00 0.16 0.00 95 1013.4
20260831234535 57 197 2.0 6.0 0.00 0.16 0.00 95 1013.3
20260831233022 56 169 1.0 6.0 0.00 0.16 0.00 95 1013.2
20260831231521 57 216 1.0 4.0 0.00 0.16 0.00 95 1013.3
20260831230024 57 200 0.0 4.0 0.00 0.16 0.00 95 1013.3
20260831224517 57 173 0.0 4.0 0.00 0.16 0.00 95 1013.2
20260831223015 57 226 1.0 7.0 0.00 0.16 0.00 94 1013.1
20260831221522 58 184 1.0 8.0 0.00 0.16 0.00 94 1013.0
20260831220019 58 192 1.0 4.0 0.00 0.16 0.00 94 1012.9
20260831214509 58 176 0.0 3.0 0.00 0.16 0.16 94 1012.9
20260831213025 59 144 0.0 7.0 0.00 0.16 0.16 94 1012.8
20260831211506 59 199 0.0 4.0 0.00 0.16 0.16 94 1012.6
20260831210005 59 177 1.0 7.0 0.00 0.16 0.16 93 1012.6
20260831204504 59 180 1.0 9.0 0.02 0.16 0.16 93 1012.6
20260831203005 60 194 1.0 6.0 0.03 0.16 0.16 92 1012.4
20260831201503 60 186 0.0 6.0 0.03 0.16 0.16 91 1012.1
20260831200001 60 154 0.0 2.0 0.03 0.16 0.16 90 1011.9
20260831194501 60 204 1.0 9.0 0.02 0.14 0.14 88 1011.9
20260831193101 61 163 1.0 4.0 0.00 0.13 0.13 87 1012.1
20260831191600 61 198 0.0 2.0 0.01 0.13 0.13 86 1011.8
20260831190136 61 195 0.0 2.0 0.01 0.13 0.13 85 1011.5
20260831184558 62 267 0.0 3.0 0.01 0.13 0.13 83 1011.2
20260831183059 63 184 0.0 2.0 0.02 0.13 0.13 82 1011.1
20260831181601 64 228 1.0 8.0 0.01 0.12 0.12 78 1011.3
20260831180057 66 317 1.0 11.0 0.01 0.12 0.12 77 1011.5
20260831174600 68 250 2.0 9.0 0.01 0.12 0.12 72 1011.2
20260831173056 70 310 1.0 7.0 0.00 0.11 0.11 64 1010.8
20260831171554 72 178 5.0 12.0 0.00 0.11 0.11 60 1010.7
20260831170054 73 279 3.0 16.0 0.00 0.11 0.11 53 1010.3
20260831164559 73 196 5.0 14.0 0.00 0.11 0.11 53 1009.9
20260831163053 73 265 2.0 11.0 0.00 0.11 0.11 55 1009.9
20260831160055 74 161 2.0 11.0 0.00 0.11 0.11 54 1009.9
20260831154538 75 247 4.0 15.0 0.00 0.11 0.11 53 1009.7
20260831153116 75 290 4.0 11.0 0.00 0.11 0.11 56 1009.7
20260831151536 75 169 3.0 12.0 0.00 0.11 0.11 56 1009.9
20260831150037 75 179 2.0 9.0 0.00 0.11 0.11 60 1009.9
20260831144532 76 157 3.0 15.0 0.00 0.11 0.11 57 1010.0
20260831143031 75 249 5.0 15.0 0.00 0.11 0.11 57 1010.1
20260831141530 77 213 4.0 15.0 0.00 0.11 0.11 58 1010.0
20260831140029 77 298 4.0 13.0 0.00 0.11 0.11 57 1010.2
20260831134528 78 209 5.0 14.0 0.00 0.11 0.11 53 1010.2
20260831133029 79 330 3.0 13.0 0.00 0.11 0.11 57 1010.3
20260831131527 78 194 4.0 13.0 0.00 0.11 0.11 55 1010.4
20260831130021 78 214 6.0 15.0 0.00 0.11 0.11 57 1010.4
20260831124521 78 308 3.0 18.0 0.00 0.11 0.11 58 1010.5
20260831123036 76 147 2.0 13.0 0.00 0.11 0.11 62 1010.5
20260831121525 78 193 5.0 12.0 0.00 0.11 0.11 58 1010.5
20260831120031 76 142 3.0 10.0 0.00 0.11 0.11 62 1010.6
20260831114519 77 174 3.0 12.0 0.00 0.11 0.11 64 1010.7
20260831113019 79 231 5.0 12.0 0.00 0.11 0.11 62 1010.6
20260831111510 77 63 3.0 11.0 0.00 0.11 0.11 65 1010.8
20260831110059 76 197 2.0 14.0 0.00 0.11 0.11 66 1010.8
20260831104557 77 192 2.0 11.0 0.00 0.11 0.11 66 1010.9
20260831103053 75 215 4.0 10.0 0.00 0.11 0.11 70 1010.8
20260831101556 75 298 1.0 8.0 0.00 0.11 0.11 72 1010.9
20260831100053 74 233 1.0 9.0 0.00 0.11 0.11 76 1011.0
20260831094600 72 197 3.0 9.0 0.00 0.11 0.11 80 1011.2
20260831093041 69 252 1.0 3.0 0.00 0.11 0.11 88 1011.2
20260831091537 67 284 1.0 3.0 0.01 0.11 0.11 89 1011.3
20260831090034 65 186 2.0 7.0 0.01 0.11 0.11 95 1011.5
20260831084530 61 168 1.0 3.0 0.02 0.11 0.11 96 1011.6
20260831083027 60 170 0.0 4.0 0.02 0.11 0.11 95 1011.6
20260831081539 60 98 1.0 3.0 0.02 0.10 0.10 95 1011.5
20260831080025 60 169 0.0 3.0 0.07 0.10 0.10 94 1011.5
20260831074526 60 144 0.0 4.0 0.09 0.09 0.09 94 1011.7
20260831073024 60 175 1.0 4.0 0.09 0.09 0.09 93 1011.5
20260831071520 60 225 1.0 6.0 0.08 0.08 0.08 92 1011.4
20260831070023 60 182 0.0 2.0 0.03 0.03 0.03 90 1011.3
20260831064514 60 161 0.0 4.0 0.00 0.00 0.00 89 1011.1
20260831063014 60 123 0.0 2.0 0.00 0.00 0.00 90 1010.8
20260831061513 59 81 0.0 0.0 0.00 0.00 0.00 92 1010.8
20260831060015 59 81 0.0 0.0 0.00 0.00 0.00 92 1010.8
20260831054511 58 81 0.0 0.0 0.00 0.00 0.00 92 1010.7
20260831053010 58 81 0.0 0.0 0.00 0.00 0.00 92 1010.7